STARLINK-31685, 59578

Orbit data source: Space-Track

STARLINK-31685, 59578 is a payload satellite owned by SpaceX/Seattle (US) in LEO that was launched on Tue, 23 Apr 2024 UTC via an FALCON 9 launch vehicle from the Air Force Eastern Test Range (AFETR). Payload-class satellites include a variety of spacecraft equipped with specific instruments for various scientific and technological missions. These include communications satellites like Starlink; space stations such as the ISS; scientific satellites like the Hubble; Earth observation satellites from companies like Planet Labs, Umbra, and HawkEye 360; GPS; miniature CubeSats for education and research; and military/defense satellites.

Loading next visibility...
Identifier
59578, 2024-076Q
Orbit
LEO
Country
Flag of USUS
Related business
Manufacturer
SpaceX/Seattle
Mission
Operational Commercial Communications
Bus & Motor
STARLINK V2M, Unknown motor
Mass
730 kg wet, ~700 kg dry
Launch date (UTC)
2024-04-23 (1 year ago)
Launch vehicle
FALCON 9
Launch site
Air Force Eastern Test Range (AFETR)
Object type
Payload
Rocket body
Debris
Shape & HBR
Box + 2 Pan, 17.7 m
Radar Cross Section
33.884 m², Large (>1 m²)

Expand to show TLE details & history
Last TLE update: 7 hours ago

TLE from 7 hours ago
0 STARLINK-31685
1 59578U 24076Q   25288.57618050  .00002029  00000-0  83240-4 0  9994
2 59578  43.0020 108.1503 0001473 272.1390  87.9293 15.27583671 84311
Epoch: 2025-10-15T13:49Z
TLE epoch observation values (Epoch: 2025-10-15T13:49:41.995Z)
Latitude
-0.00001°
Longitude
-123.62296°
Altitude
482.777 km
Speed
7.626 km/s
True Right ascension
07h 12m 36s
True Declination
0° 00' 00"
Sunlit
Object was in daylight at epoch
Visualization orbit readout
Latitude
Unknown
Longitude
Unknown
Altitude
Unknown
Speed
Unknown
Apparent Right ascension
Unknown
Apparent Declination
Unknown
Sunlit
N/A
Visualization observer readout
Local Sidereal Time
15:23:01
Azimuth
Unknown
Elevation
Unknown
Doppler factor
Unknown
Orbital elements
Apogee altitude
485.994 km
Perigee altitude
483.972 km
Semi-major axis
6,863.12 km
Eccentricity
0.00015
Inclination
43.002°
RAAN
108.1503°
Arg. of periapsis
272.139°
True anomaly
87.94617°
Mean anomaly
87.9293°
Eccentric anomaly
87.93773°
Mean motion
3.81734 °/min
Orbital period
94.31 mins
BSTAR
0.00008324
Loading maneuver chart data...
Computing Atmospheric mass density...
Loading historical data...
Loading historical data...
Loading historical data...
Loading historical data...
Loading historical data...
Loading historical data...
Loading historical data...

Documentation

Showing up to 5 results
|